Gillette, WY

7:44 AM MDT on July 28, 2017 (GMT -0600)
Gillette-Campbell County

Weather History for KGCC - February, 2013

Change the Weather History Date:

Thursday, February 7, 2013

  Actual Average Record
Temperature  
Mean Temperature 35 °F 26 °F  
Max Temperature 45 °F 37 °F 63 °F (2015)
Min Temperature 24 °F 15 °F -19 °F (2014)
Degree Days  
Heating Degree Days 30 39  
Month to date heating degree days 221 273  
Since 1 July heating degree days 4307 4628  
Cooling Degree Days 0 0  
Month to date cooling degree days 0 0  
Year to date cooling degree days 0 0  
Moisture  
Dew Point 20 °F    
Average Humidity 59    
Maximum Humidity 81    
Minimum Humidity 36    
Precipitation  
Precipitation 0.00 in 0.02 in 0.04 in (2017)
Month to date precipitation 0.04 0.11  
Year to date precipitation 0.45 0.50  
Sea Level Pressure  
Sea Level Pressure 30.05 in    
Wind  
Wind Speed 11 mph (SSW)    
Max Wind Speed 22 mph    
Max Gust Speed 26 mph    
Visibility 10 miles    
Events      
T = Trace of Precipitation, MM = Missing Value Source: NWS Daily Summary

Daily Weather History Graph

Daily Weather History Graph

Search for Another Location

Airport or City:

Trip Planner

Search our weather history database for the weather conditions in past years. The results will help you decide how hot, cold, wet, or windy it might be!

Date:

Astronomy

Feb. 07, 2013 Rise Set
Actual Time 7:12 AM MST 5:20 PM MST
Civil Twilight 6:42 AM MST 5:50 PM MST
Nautical Twilight 6:07 AM MST 6:25 PM MST
Astronomical Twilight 5:34 AM MST 6:59 PM MST
Moon 4:58 AM MST (2/7) 2:44 PM MST (2/7)
Length of Visible Light 11h 08m
Length of Day
10h 07m
Waning Crescent, 8% of the Moon is Illuminated
Feb 7
Waning Crescent
Feb 10
New
Feb 17
First Quarter
Feb 25
Full
Mar 4
Last Quarter

Hourly Weather History & Observations

Time (MST) Temp. Windchill Dew Point Humidity Pressure Visibility Wind Dir Wind Speed Gust Speed Precip Events Conditions
12:53 AM 27.0 °F 18.0 °F 21.0 °F 78% 30.11 in 10.0 mi West 9.2 mph - N/A   Clear
1:53 AM 28.0 °F 19.3 °F 21.0 °F 75% 30.12 in 10.0 mi West 9.2 mph - N/A   Clear
2:53 AM 26.1 °F 16.8 °F 19.9 °F 78% 30.12 in 10.0 mi West 9.2 mph - N/A   Clear
3:53 AM 28.0 °F 17.5 °F 19.9 °F 72% 30.12 in 10.0 mi WSW 12.7 mph - N/A   Scattered Clouds
4:53 AM 27.0 °F 17.3 °F 19.0 °F 72% 30.14 in 10.0 mi WSW 10.4 mph - N/A   Clear
5:53 AM 27.0 °F 17.3 °F 19.9 °F 75% 30.15 in 10.0 mi SW 10.4 mph - N/A   Clear
6:53 AM 25.0 °F - 19.9 °F 81% 30.16 in 10.0 mi Calm Calm - N/A   Clear
7:53 AM 28.9 °F 20.4 °F 21.0 °F 72% 30.16 in 10.0 mi SSW 9.2 mph - N/A   Clear
8:53 AM 33.1 °F 30.0 °F 21.9 °F 64% 30.15 in 10.0 mi South 3.5 mph - N/A   Clear
9:53 AM 36.0 °F 28.5 °F 21.0 °F 55% 30.13 in 10.0 mi South 10.4 mph - N/A   Clear
10:53 AM 37.9 °F 30.5 °F 24.1 °F 57% 30.11 in 10.0 mi South 11.5 mph - N/A   Clear
11:53 AM 41.0 °F 32.8 °F 24.1 °F 51% 30.09 in 10.0 mi South 16.1 mph - N/A   Clear
12:53 PM 41.0 °F 32.8 °F 19.9 °F 43% 30.05 in 10.0 mi South 16.1 mph - N/A   Clear
1:53 PM 43.0 °F 36.0 °F 19.0 °F 38% 30.01 in 10.0 mi SSW 13.8 mph 20.7 mph N/A   Clear
2:53 PM 43.0 °F 36.8 °F 18.0 °F 37% 30.00 in 10.0 mi South 11.5 mph - N/A   Clear
3:53 PM 44.1 °F 38.1 °F 19.0 °F 37% 29.98 in 10.0 mi SSE 11.5 mph - N/A   Clear
4:53 PM 37.9 °F 35.5 °F 21.0 °F 51% 29.99 in 10.0 mi South 3.5 mph - N/A   Clear
5:53 PM 34.0 °F - 23.0 °F 64% 30.00 in 10.0 mi Calm Calm - N/A   Clear
6:53 PM 37.0 °F 28.1 °F 19.0 °F 48% 29.99 in 10.0 mi South 15.0 mph - N/A   Clear
7:53 PM 36.0 °F 26.7 °F 19.0 °F 50% 29.97 in 10.0 mi SSE 15.0 mph - N/A   Clear
8:53 PM 35.1 °F 23.8 °F 21.9 °F 59% 29.95 in 10.0 mi South 20.7 mph - N/A   Clear
9:53 PM 35.1 °F 25.5 °F 19.9 °F 54% 29.93 in 10.0 mi South 15.0 mph - N/A   Clear
10:53 PM 34.0 °F 22.7 °F 19.0 °F 54% 29.91 in 10.0 mi South 19.6 mph - N/A   Clear
11:53 PM 33.1 °F 23.4 °F 19.0 °F 56% 29.89 in 10.0 mi South 13.8 mph - N/A   Clear